Location: Unspecified
(0.0000°N, 0.0000°E)
Time: 11:26:00
(UTC+00:00)

STARLINK-36491 - Pass Details

Date: 18 February 2026
Orbit: 482 x 484 km, 43.0° (Epoch: 8 March)

Event Time Altitude Azimuth Distance (km) Brightness Sun altitude
Rises 19:57:42 0° 258° (WSW) 2,532 ? -25.4°
Reaches altitude 10° 20:00:49 10° 285° (WNW) 1,653 ? -26.2°
Maximum altitude 20:02:43 13° 316° (NW) 1,452 ? -26.6°
Enters shadow 20:03:14 13° 325° (NW) 1,468 ? -26.8°
